TimeCEST,TemperatureF,Dew PointF,Humidity,Sea Level PressureIn,VisibilityMPH,Wind Direction,Wind SpeedMPH,Gust SpeedMPH,PrecipitationIn,Events,Conditions,WindDirDegrees,DateUTC
6:55 AM,59.0,53.6,82,30.04,3.7,West,3.5,-,N/A,,Partly Cloudy,280,2012-10-03 04:55:00
7:55 AM,59.0,53.6,82,30.06,-9999.0,West,3.5,-,N/A,,Clear,260,2012-10-03 05:55:00
8:00 AM,58,53,80,30.07,4,West,3.5,,,,Mist,260,2012-10-03 06:00:00
8:55 AM,62.6,57.2,82,30.06,6.2,WNW,5.8,-,N/A,,Partly Cloudy,290,2012-10-03 06:55:00
9:55 AM,68.0,60.8,78,30.06,6.2,NW,5.8,-,N/A,,Partly Cloudy,310,2012-10-03 07:55:00
10:55 AM,73.4,62.6,69,30.06,6.2,WNW,4.6,-,N/A,,Partly Cloudy,290,2012-10-03 08:55:00
11:55 AM,75.2,60.8,61,30.06,6.2,WNW,2.3,-,N/A,,Partly Cloudy,290,2012-10-03 09:55:00
12:55 PM,78.8,60.8,54,30.04,6.2,West,3.5,-,N/A,,Scattered Clouds,260,2012-10-03 10:55:00
1:55 PM,80.6,59.0,48,30.04,6.2,WSW,2.3,-,N/A,,Scattered Clouds,240,2012-10-03 11:55:00
2:00 PM,80,59,38,30.04,12,WSW,2.3,,,,Partly Cloudy,240,2012-10-03 12:00:00
2:55 PM,80.6,55.4,42,30.04,6.2,SSW,3.5,-,N/A,,Mostly Cloudy,200,2012-10-03 12:55:00
3:55 PM,77.0,66.2,69,30.04,6.2,East,11.5,-,N/A,,Scattered Clouds,80,2012-10-03 13:55:00
4:55 PM,77.0,66.2,69,30.01,6.2,East,9.2,-,N/A,,Scattered Clouds,80,2012-10-03 14:55:00
5:00 PM,77,66,61,30.03,12,East,9.2,,,,Partly Cloudy,80,2012-10-03 15:00:00
5:55 PM,75.2,66.2,73,30.04,6.2,ESE,8.1,-,N/A,,Scattered Clouds,110,2012-10-03 15:55:00
6:55 PM,73.4,68.0,83,30.06,6.2,ESE,6.9,-,N/A,,Scattered Clouds,120,2012-10-03 16:55:00
7:55 PM,69.8,68.0,94,30.04,6.2,SSE,4.6,-,N/A,,Partly Cloudy,160,2012-10-03 17:55:00
8:00 PM,70,67,89,30.06,9,SSE,4.6,,,,Scattered Clouds,160,2012-10-03 18:00:00
8:55 PM,68.0,66.2,94,30.06,6.2,SW,2.3,-,N/A,,Partly Cloudy,220,2012-10-03 18:55:00
9:55 PM,66.2,64.4,94,30.06,6.2,West,4.6,-,N/A,,Partly Cloudy,270,2012-10-03 19:55:00
10:55 PM,62.6,62.6,100,30.06,6.2,West,4.6,-,N/A,,Partly Cloudy,270,2012-10-03 20:55:00
11:00 PM,63,62,95,30.09,7,West,5.8,,,,Scattered Clouds,270,2012-10-03 21:00:00